Location: Blackfoot
(53.5367°N, 112.7800°W)
Time: 20:13:35
(UTC-06:00)

Amateur Radio Satellites - All Passes

Search period start: 20 October 2014 19:43
Search period end: 21 October 2014 19:43
Location: Blackfoot, 53.5367°N, 112.7800°W

Satellite Date Start Highest point End Downlink Frequencies (MHz)
Time Altitude Azimuth
JAS-2 20 Oct 19:49:28 19:53:54 21° 277° (W) 19:58:44 435.800 - 435.900 CW/SSB, 435.910 FM
AO-40 20 Oct 19:56:51 23:34:32 24° 193° (SSW) 03:55:17 Beacon 2401.320
UKube-1 20 Oct 20:11:59 20:13:31 12° 49° (NE) 20:15:03 145.840 MHz, 145.915 MHz
SO-67 20 Oct 20:13:12 20:16:23 35° 263° (W) 20:19:36 435.3500 MHz FM
SO-50 20 Oct 20:26:43 20:30:40 25° 16° (NNE) 20:34:41 436.795 FM
UOSAT-12 20 Oct 20:33:44 20:37:29 23° 352° (N) 20:41:15 437.025 FM, 437.400 FM
FUNcube-1 20 Oct 20:44:48 20:45:23 10° 48° (NE) 20:45:58 145.950 - 145.970 MHz USB
STRAND 1 20 Oct 20:49:01 20:54:14 89° 107° (ESE) 20:59:24 ?
ISS 20 Oct 20:49:16 20:52:08 26° 208° (SSW) 20:55:00 145.800 FM
OPAL 20 Oct 20:51:48 20:55:33 22° 309° (NW) 20:59:16 ?
Oscar 11 20 Oct 20:55:34 20:58:48 21° 58° (ENE) 21:02:03 145.825 FM, Beacon 2401.500 USB
KITSAT 1 20 Oct 21:11:49 21:19:49 58° 36° (NE) 21:27:47 435.175 FM
HO-68 20 Oct 21:14:34 21:21:44 87° 70° (ENE) 21:28:59 435.675 MHz FM
ZACube-1 20 Oct 21:31:37 21:35:11 23° 59° (ENE) 21:38:43 437.345 MHz
UKube-1 20 Oct 21:44:35 21:48:52 60° 69° (ENE) 21:53:12 145.840 MHz, 145.915 MHz
RS-15 20 Oct 22:06:52 22:13:31 19° 96° (E) 22:20:07 29.354 - 29.394 USB, Beacon 29.352 USB
SO-50 20 Oct 22:07:22 22:12:06 59° 38° (NE) 22:16:55 436.795 FM
UOSAT-12 20 Oct 22:15:03 22:19:02 26° 16° (NNE) 22:23:00 437.025 FM, 437.400 FM
FUNcube-1 20 Oct 22:16:22 22:20:48 49° 68° (ENE) 22:25:11 145.950 - 145.970 MHz USB
STRAND 1 20 Oct 22:29:07 22:32:49 20° 307° (NW) 22:36:30 ?
Oscar 11 20 Oct 22:30:19 22:34:38 64° 258° (WSW) 22:38:57 145.825 FM, Beacon 2401.500 USB
HO-68 20 Oct 23:04:42 23:10:22 25° 271° (W) 23:16:05 435.675 MHz FM
ZACube-1 20 Oct 23:06:40 23:11:14 63° 258° (WSW) 23:15:46 437.345 MHz
KITSAT 1 20 Oct 23:07:30 23:15:19 55° 241° (WSW) 23:23:05 435.175 FM
UKube-1 20 Oct 23:22:12 23:25:27 20° 269° (W) 23:28:43 145.840 MHz, 145.915 MHz
SO-50 20 Oct 23:48:12 23:52:31 34° 239° (WSW) 23:56:53 436.795 FM
FUNcube-1 20 Oct 23:53:33 23:57:25 26° 267° (W) 00:01:15 145.950 - 145.970 MHz USB
UOSAT-12 20 Oct 23:55:18 00:00:02 61° 39° (NE) 00:04:42 437.025 FM, 437.400 FM
RS-15 21 Oct 00:12:45 00:23:26 63° 122° (ESE) 00:34:09 29.354 - 29.394 USB, Beacon 29.352 USB
KITSAT 1 21 Oct 01:05:12 01:08:56 14° 263° (W) 01:12:40 435.175 FM
MaSat-1 21 Oct 01:20:40 01:24:08 26° 114° (ESE) 01:27:20 437.345 MHz
UOSAT-12 21 Oct 01:35:49 01:39:58 31° 240° (WSW) 01:44:03 437.025 FM, 437.400 FM
Oscar 16 21 Oct 02:06:01 02:09:52 21° 89° (E) 02:13:42 437.025 USB, Beacon 2401.1428
JAS-1B 21 Oct 02:16:54 02:22:04 26° 92° (E) 02:27:51 435.800 - 435.900 CW/SSB
Uribyol 2 21 Oct 02:18:52 02:21:13 13° 84° (E) 02:23:34 436.500 FM
ITAMSAT 1 21 Oct 02:23:37 02:26:10 14° 84° (E) 02:28:42 435.822 SSB
RS-15 21 Oct 02:25:11 02:36:01 62° 330° (NNW) 02:47:01 29.354 - 29.394 USB, Beacon 29.352 USB
AO-Echo 21 Oct 02:35:22 02:39:26 22° 89° (E) 02:43:29 ?
MaSat-1 21 Oct 02:55:54 02:59:48 45° 310° (NW) 03:03:19 437.345 MHz
Oscar 19 21 Oct 02:59:36 03:04:37 52° 100° (E) 03:09:36 437.125 CW, 437.150 USB
AO-27 21 Oct 03:06:46 03:11:20 29° 93° (E) 03:15:51 436.795 MHz FM
OPAL 21 Oct 03:19:23 03:21:53 14° 44° (NE) 03:24:21 ?
Oscar 16 21 Oct 03:44:39 03:49:47 73° 289° (WNW) 03:54:53 437.025 USB, Beacon 2401.1428
Gurwin Techsat 1B 21 Oct 03:56:23 04:01:25 41° 97° (E) 04:06:26 435.225 FM
Uribyol 2 21 Oct 03:56:26 04:01:41 71° 104° (ESE) 04:06:53 436.500 FM
ITAMSAT 1 21 Oct 04:01:21 04:06:37 73° 104° (ESE) 04:11:50 435.822 SSB
JAS-1B 21 Oct 04:07:09 04:13:16 75° 290° (WNW) 04:20:25 435.800 - 435.900 CW/SSB
TMSAT-1 21 Oct 04:10:24 04:15:26 41° 97° (E) 04:20:26 436.925 FM
AO-Echo 21 Oct 04:13:27 04:18:43 74° 289° (WNW) 04:24:01 ?
MaSat-1 21 Oct 04:34:53 04:36:20 12° 330° (NNW) 04:37:44 437.345 MHz
Oscar 19 21 Oct 04:39:19 04:43:47 31° 300° (WNW) 04:48:14 437.125 CW, 437.150 USB
RS-15 21 Oct 04:40:08 04:50:37 47° 2° (N) 05:01:21 29.354 - 29.394 USB, Beacon 29.352 USB
AO-27 21 Oct 04:46:01 04:51:08 54° 293° (WNW) 04:56:13 436.795 MHz FM
OPAL 21 Oct 04:54:47 04:59:48 55° 64° (ENE) 05:04:47 ?
STRAND 1 21 Oct 04:58:10 04:59:32 11° 43° (NE) 05:00:54 ?
JAS-2 21 Oct 05:05:07 05:08:42 14° 77° (ENE) 05:12:19 435.800 - 435.900 CW/SSB, 435.910 FM
AO-7 21 Oct 05:23:57 05:31:48 43° 98° (E) 05:39:36 29.400 - 29.500 MHz
Oscar 16 21 Oct 05:25:14 05:28:21 16° 310° (NW) 05:31:27 437.025 USB, Beacon 2401.1428
Sapphire 21 Oct 05:27:41 05:32:26 32° 114° (ESE) 05:37:12 437.095 MHz 1200 baud AX-25 AFSK
Gurwin Techsat 1B 21 Oct 05:36:28 05:41:25 40° 297° (WNW) 05:46:20 435.225 FM
Uribyol 2 21 Oct 05:36:33 05:40:44 25° 304° (NW) 05:44:54 436.500 FM
ITAMSAT 1 21 Oct 05:41:31 05:45:40 24° 305° (NW) 05:49:48 435.822 SSB
PCSat 21 Oct 05:50:08 05:55:18 48° 120° (ESE) 06:00:31 145.825 MHz
TMSAT-1 21 Oct 05:50:27 05:55:23 40° 297° (WNW) 06:00:18 436.925 FM
AO-Echo 21 Oct 05:53:24 05:56:42 17° 309° (NW) 06:00:03 ?
Uosat F 21 Oct 05:54:43 05:59:41 53° 101° (E) 06:04:37 435.120 FM
JAS-1B 21 Oct 05:59:02 06:03:13 20° 311° (NW) 06:07:45 435.800 - 435.900 CW/SSB
AO-27 21 Oct 06:27:13 06:29:37 13° 314° (NW) 06:32:00 436.795 MHz FM
STRAND 1 21 Oct 06:32:41 06:37:33 45° 64° (ENE) 06:42:26 ?
OPAL 21 Oct 06:34:31 06:38:58 29° 264° (W) 06:43:24 ?
Hamsat 21 Oct 06:35:25 06:38:45 23° 92° (E) 06:42:05 145.90 MHz
JAS-2 21 Oct 06:47:59 06:55:21 54° 98° (E) 07:03:01 435.800 - 435.900 CW/SSB, 435.910 FM
RS-15 21 Oct 06:54:03 07:05:03 68° 34° (NE) 07:16:27 29.354 - 29.394 USB, Beacon 29.352 USB
Sapphire 21 Oct 07:10:13 07:15:36 63° 315° (NW) 07:21:01 437.095 MHz 1200 baud AX-25 AFSK
AO-7 21 Oct 07:16:49 07:24:58 62° 300° (WNW) 07:33:07 29.400 - 29.500 MHz
Gurwin Techsat 1B 21 Oct 07:19:26 07:20:05 10° 319° (NW) 07:20:44 435.225 FM
SO-67 21 Oct 07:31:35 07:32:46 11° 87° (E) 07:33:57 435.3500 MHz FM
TMSAT-1 21 Oct 07:33:25 07:34:00 10° 319° (NW) 07:34:35 436.925 FM
PCSat 21 Oct 07:33:36 07:38:49 46° 321° (NW) 07:44:04 145.825 MHz
Uosat F 21 Oct 07:33:53 07:38:16 30° 301° (WNW) 07:42:38 435.120 FM
Hamsat 21 Oct 08:10:55 08:14:58 49° 291° (WNW) 08:19:01 145.90 MHz
STRAND 1 21 Oct 08:12:12 08:16:52 35° 264° (W) 08:21:36 ?
JAS-2 21 Oct 08:33:15 08:40:20 48° 298° (WNW) 08:47:45 435.800 - 435.900 CW/SSB, 435.910 FM
HO-68 21 Oct 08:38:10 08:40:20 11° 78° (ENE) 08:42:30 435.675 MHz FM
Sapphire 21 Oct 08:55:36 09:00:03 25° 339° (NNW) 09:04:31 437.095 MHz 1200 baud AX-25 AFSK
SO-67 21 Oct 09:02:46 09:06:14 73° 286° (WNW) 09:09:40 435.3500 MHz FM
RS-15 21 Oct 09:06:44 09:17:23 56° 241° (WSW) 09:28:27 29.354 - 29.394 USB, Beacon 29.352 USB
AO-7 21 Oct 09:10:15 09:16:20 24° 324° (NW) 09:22:26 29.400 - 29.500 MHz
PCSat 21 Oct 09:19:22 09:23:33 22° 346° (NNW) 09:27:44 145.825 MHz
Saudisat 1A 21 Oct 09:21:56 09:25:41 28° 120° (ESE) 09:29:27 436.775 MHz
MaSat-1 21 Oct 09:25:33 09:28:11 26° 43° (NE) 09:30:33 437.345 MHz
Oscar 11 21 Oct 10:12:31 10:15:11 16° 88° (E) 10:17:50 145.825 FM, Beacon 2401.500 USB
JAS-2 21 Oct 10:19:31 10:23:49 17° 320° (NW) 10:28:17 435.800 - 435.900 CW/SSB, 435.910 FM
HO-68 21 Oct 10:22:51 10:29:52 52° 100° (E) 10:36:51 435.675 MHz FM
Sapphire 21 Oct 10:41:20 10:45:18 20° 5° (N) 10:49:16 437.095 MHz 1200 baud AX-25 AFSK
ZACube-1 21 Oct 10:50:32 10:53:25 17° 88° (E) 10:56:15 437.345 MHz
Saudisat 1A 21 Oct 11:00:39 11:05:00 61° 320° (NW) 11:09:25 436.775 MHz
MaSat-1 21 Oct 11:01:29 11:03:51 23° 247° (WSW) 11:06:00 437.345 MHz
UKube-1 21 Oct 11:02:28 11:06:42 45° 99° (E) 11:10:53 145.840 MHz, 145.915 MHz
AO-7 21 Oct 11:03:04 11:06:15 13° 351° (N) 11:09:26 29.400 - 29.500 MHz
PCSat 21 Oct 11:04:42 11:08:50 21° 12° (NNE) 11:12:57 145.825 MHz
RS-15 21 Oct 11:21:19 11:27:06 16° 266° (W) 11:33:01 29.354 - 29.394 USB, Beacon 29.352 USB
FUNcube-1 21 Oct 11:35:29 11:39:38 41° 97° (E) 11:43:39 145.950 - 145.970 MHz USB
Oscar 11 21 Oct 11:47:35 11:51:55 75° 287° (WNW) 11:56:12 145.825 FM, Beacon 2401.500 USB
Oscar 16 21 Oct 11:53:13 11:55:37 13° 47° (NE) 11:58:01 437.025 USB, Beacon 2401.1428
KITSAT 1 21 Oct 11:55:57 11:56:26 10° 94° (E) 11:56:54 435.175 FM
HO-68 21 Oct 12:10:47 12:17:35 47° 302° (WNW) 12:24:21 435.675 MHz FM
AO-Echo 21 Oct 12:19:52 12:21:31 12° 45° (NE) 12:23:11 ?
Sapphire 21 Oct 12:25:24 12:30:20 33° 31° (NNE) 12:35:14 437.095 MHz 1200 baud AX-25 AFSK
ZACube-1 21 Oct 12:25:59 12:30:21 69° 288° (WNW) 12:34:34 437.345 MHz
UKube-1 21 Oct 12:38:59 12:42:45 28° 299° (WNW) 12:46:29 145.840 MHz, 145.915 MHz
Saudisat 1A 21 Oct 12:41:46 12:45:22 24° 343° (NNW) 12:48:59 436.775 MHz
Oscar 19 21 Oct 12:44:49 12:49:07 28° 58° (ENE) 12:53:25 437.125 CW, 437.150 USB
PCSat 21 Oct 12:48:26 12:53:38 43° 37° (NE) 12:58:48 145.825 MHz
AO-7 21 Oct 12:51:35 12:55:44 15° 19° (NNE) 12:59:53 29.400 - 29.500 MHz
AO-27 21 Oct 12:54:05 12:57:34 18° 51° (NE) 13:01:03 436.795 MHz FM
JAS-1B 21 Oct 13:10:18 13:15:37 38° 60° (ENE) 13:20:49 435.800 - 435.900 CW/SSB
FUNcube-1 21 Oct 13:12:08 13:15:54 29° 298° (WNW) 13:19:34 145.950 - 145.970 MHz USB
Oscar 11 21 Oct 13:25:16 13:27:24 14° 307° (NW) 13:29:31 145.825 FM, Beacon 2401.500 USB
Oscar 16 21 Oct 13:28:56 13:33:58 56° 67° (ENE) 13:39:02 437.025 USB, Beacon 2401.1428
Uribyol 2 21 Oct 13:42:01 13:46:48 38° 62° (ENE) 13:51:36 436.500 FM
Oscar 10/S400 21 Oct 13:42:10 13:51:15 14° 143° (SE) 14:00:59 145.825 - 145.975 CW/USB, Beacon 145.810 USB
KITSAT 1 21 Oct 13:42:12 13:49:43 45° 116° (ESE) 13:57:16 435.175 FM
Gurwin Techsat 1B 21 Oct 13:45:38 13:49:49 24° 55° (NE) 13:54:01 435.225 FM
ITAMSAT 1 21 Oct 13:47:02 13:51:50 39° 62° (ENE) 13:56:40 435.822 SSB
AO-Echo 21 Oct 13:54:26 13:59:09 49° 66° (ENE) 14:04:03 ?
TMSAT-1 21 Oct 13:59:22 14:03:32 24° 55° (NE) 14:07:43 436.925 FM
HO-68 21 Oct 13:59:36 14:03:41 16° 325° (NW) 14:07:46 435.675 MHz FM
ZACube-1 21 Oct 14:04:04 14:05:58 13° 309° (NW) 14:07:50 437.345 MHz
Sapphire 21 Oct 14:08:50 14:14:18 79° 233° (SW) 14:19:43 437.095 MHz 1200 baud AX-25 AFSK
SO-50 21 Oct 14:09:56 14:13:01 18° 114° (ESE) 14:16:11 436.795 FM
Saudisat 1A 21 Oct 14:22:57 14:26:18 20° 7° (N) 14:29:39 436.775 MHz
Oscar 19 21 Oct 14:23:04 14:28:10 61° 258° (WSW) 14:33:17 437.125 CW, 437.150 USB
AO-27 21 Oct 14:31:08 14:36:21 80° 72° (ENE) 14:41:37 436.795 MHz FM
PCSat 21 Oct 14:31:57 14:37:15 54° 239° (WSW) 14:42:30 145.825 MHz
AO-7 21 Oct 14:39:05 14:46:06 33° 45° (NE) 14:53:09 29.400 - 29.500 MHz
JAS-1B 21 Oct 15:00:44 15:06:22 44° 262° (W) 15:11:48 435.800 - 435.900 CW/SSB
Oscar 16 21 Oct 15:09:16 15:13:40 28° 267° (W) 15:18:04 437.025 USB, Beacon 2401.1428
ISS 21 Oct 15:12:05 15:14:09 15° 144° (SE) 15:16:12 145.800 FM
Uribyol 2 21 Oct 15:21:17 15:26:15 43° 262° (W) 15:31:15 436.500 FM
Gurwin Techsat 1B 21 Oct 15:24:01 15:29:20 74° 256° (WSW) 15:34:41 435.225 FM
ITAMSAT 1 21 Oct 15:26:24 15:31:20 42° 262° (W) 15:36:18 435.822 SSB
JAS-2 21 Oct 15:26:28 15:29:40 14° 36° (NE) 15:33:01 435.800 - 435.900 CW/SSB, 435.910 FM
AO-Echo 21 Oct 15:33:52 15:38:10 30° 267° (W) 15:42:37 ?
Uosat F 21 Oct 15:36:48 15:40:59 27° 58° (ENE) 15:45:12 435.120 FM
KITSAT 1 21 Oct 15:36:51 15:44:55 67° 319° (NW) 15:53:00 435.175 FM
TMSAT-1 21 Oct 15:37:41 15:42:59 75° 256° (WSW) 15:48:20 436.925 FM
SO-50 21 Oct 15:48:24 15:52:58 90° 134° (SE) 15:57:42 436.795 FM
Sapphire 21 Oct 15:53:30 15:56:55 17° 254° (WSW) 16:00:19 437.095 MHz 1200 baud AX-25 AFSK
UOSAT-12 21 Oct 15:53:31 15:56:46 19° 114° (ESE) 16:00:03 437.025 FM, 437.400 FM
Saudisat 1A 21 Oct 16:02:47 16:06:57 38° 31° (NNE) 16:11:07 436.775 MHz
Oscar 19 21 Oct 16:07:28 16:08:37 11° 278° (W) 16:09:45 437.125 CW, 437.150 USB
AO-27 21 Oct 16:12:47 16:16:31 20° 272° (W) 16:20:16 436.795 MHz FM
PCSat 21 Oct 16:18:33 16:19:29 10° 259° (W) 16:20:25 145.825 MHz
AO-7 21 Oct 16:29:49 16:38:07 89° 248° (WSW) 16:46:29 29.400 - 29.500 MHz
ISS 21 Oct 16:47:04 16:50:17 44° 163° (SSE) 16:53:30 145.800 FM
JAS-2 21 Oct 17:07:16 17:12:59 44° 60° (ENE) 17:19:26 435.800 - 435.900 CW/SSB, 435.910 FM
Gurwin Techsat 1B 21 Oct 17:07:34 17:10:15 14° 276° (W) 17:12:58 435.225 FM
Uosat F 21 Oct 17:14:31 17:19:29 60° 258° (WSW) 17:24:30 435.120 FM
TMSAT-1 21 Oct 17:21:07 17:23:51 14° 276° (W) 17:26:36 436.925 FM
SO-50 21 Oct 17:29:59 17:34:05 30° 337° (NNW) 17:38:18 436.795 FM
UOSAT-12 21 Oct 17:31:38 17:36:20 90° 126° (SE) 17:41:06 437.025 FM, 437.400 FM
KITSAT 1 21 Oct 17:34:24 17:41:46 37° 347° (NNW) 17:49:09 435.175 FM
Hamsat 21 Oct 17:34:38 17:38:29 36° 66° (ENE) 17:42:21 145.90 MHz
Saudisat 1A 21 Oct 17:42:23 17:46:43 54° 232° (SW) 17:51:01 436.775 MHz
SO-67 21 Oct 18:10:41 18:12:07 12° 58° (ENE) 18:13:33 435.3500 MHz FM
ISS 21 Oct 18:23:28 18:26:48 63° 183° (S) 18:30:07 145.800 FM
AO-7 21 Oct 18:25:24 18:32:02 26° 271° (W) 18:38:44 29.400 - 29.500 MHz
OPAL 21 Oct 18:37:02 18:41:49 43° 101° (E) 18:46:32 ?
JAS-2 21 Oct 18:52:21 18:58:05 46° 265° (W) 19:04:36 435.800 - 435.900 CW/SSB, 435.910 FM
Uosat F 21 Oct 18:58:39 18:59:22 10° 278° (W) 19:00:04 435.120 FM
Hamsat 21 Oct 19:10:45 19:14:30 31° 265° (W) 19:18:16 145.90 MHz
SO-50 21 Oct 19:12:19 19:15:58 22° 2° (N) 19:19:42 436.795 FM
UOSAT-12 21 Oct 19:12:51 19:17:02 31° 337° (NNW) 19:21:16 437.025 FM, 437.400 FM
HO-68 21 Oct 19:12:51 19:18:11 23° 44° (NE) 19:23:33 435.675 MHz FM
